sat.trackr.live / text

‹ back to catalog

STARLINK-35774

NORAD 66283 · 2025-247U

PAYLOAD ACTIVE UNKNOWN

§ Identity

Operator
Country
US
Launch date
2025-10-31
Launch site
AFWTR
Launch vehicle
Mass (kg)
RCS (m²)

Purposes: comms

External: N2YO · Heavens-Above · Gunter

§ Orbital elements

Epoch: 2026-09-20T13:43:25.150368Z

Period
93.85 min
Inclination
53.1591°
Eccentricity
0.0000976
Mean motion
15.34406470 rev/d
Perigee alt
462.0 km
Apogee alt
463.4 km
Semi-major
6,840.8 km
B*
7.7103e-4
RAAN
3.2089°
Arg perigee
89.6027°
Mean anomaly
270.5087°
Rev number
5,091

§ Raw data

STARLINK-357741 66283U 25247U   26263.57181887  .00025769  00000+0  77103-3 0  99982 66283  53.1591   3.2089 0000976  89.6027 270.5087 15.34406470 50915

JSON: /api/v1/satellites/66283 · /tle

For live sub-satellite position, see the globe view (requires WebGL).

§ Visibility from observer

Set your observer location to see the next 7 days of passes ≥ 10°. The values pass through the URL so the page stays shareable.

No JS? Fill the form by hand. The geolocation button needs JavaScript.